Back to catalog

RASSVET-3 12

AliveSciencePO
NORAD 68371·PAYLOAD·🇷🇺 Russia

Launched Mar 23, 2026 from Plesetsk Cosmodrome

Loading…

Next Passes (next 24 hours)

TLE

FreshSource: Space-Track

Epoch: Sep 13, 2026, 13:56 UTC

1 68371U 26061M   26256.58089458  .00002988  00000-0  14383-3 0  9997
2 68371  82.2914 284.5629 0003126  87.0581 273.1010 15.18413437 26829

Track RASSVET-3 12 in real time with AllMySat

Download on the App Store